Flag for Switzerland Weather past 2 weeks in Sion, Valais, Switzerland

Now
71 °F

Mild.


Feels Like: 74 °F
Forecast: 55 / 77 °F
Wind: 16 mph from West

Location: Sion

Current Time: Jul 22, 2014 at 8:15:03 PM

Latest Report: Jul 22, 2014 at 6:00 PM


Visibility: N/A

Pressure: 29.90 "Hg

Humidity: 69%

Dew point: 60 °F

Location of SionLocation

Historic Weather in Sion — Graph

°F

Sion temperature yesterday

Maximum temperature yesterday: 68 °F (at 4:00 PM)
Minimum temperature yesterday: 56 °F (at 6:00 AM)
Average temperature yesterday: 61 °F

Past Weeks' High & Low Weather Summary

 TemperatureHumidityPressure
High92 °F (Jul 18, 4:00 PM)98% (Jul 21, 6:00 AM)30.20 "Hg (Jul 21, 6:00 AM)
Low50 °F (Jul 10, 7:00 AM)26% (Jul 18, 4:00 PM)29.78 "Hg (Jul 20, 6:00 PM)
Average66 °F72%29.96 "Hg
* Reported Jul 7 6:00 PM — Jul 22 6:00 PM, Sion, Weather by CustomWeather, © 2014

Note: Actual official high and low records may vary slightly from our data, if they occured in-between our weather recording intervals... More about our weather records

Advertising

Sion weather history for previous 24 hours

 ConditionsComfort  
Time TempWeatherWind HumidityBarometerVisibility
6:00 PM
Jul 22
71 °FMild.16 mph69%29.90 "HgN/A
5:00 PM70 °FLow clouds.15 mph69%29.91 "Hg11 mi
4:00 PM71 °FMild.16 mph69%29.90 "HgN/A
3:00 PM70 °FMild.13 mph72%29.90 "HgN/A
2:00 PM70 °FOvercast.13 mph72%29.91 "Hg11 mi
1:00 PM68 °FMild.8 mph79%29.92 "HgN/A
12:00 PM67 °FMild.5 mph86%29.93 "HgN/A
11:00 AM64 °FLight rain. Overcast.2 mph93%29.95 "Hg7 mi
10:00 AM62 °FCool.No wind94%29.96 "HgN/A
9:00 AM62 °FCool.2 mph95%29.95 "HgN/A
8:00 AM61 °FHeavy rain. Overcast.No wind94%29.95 "Hg9 mi
7:00 AM61 °FCool.2 mph97%29.94 "HgN/A
6:00 AM61 °FCool.No wind96%29.93 "HgN/A
5:00 AM60 °FLight rain. Overcast.1 mph97%29.93 "Hg6 mi
4:00 AM60 °FCool.1 mph98%29.94 "HgN/A
3:00 AM60 °FCool.5 mph94%29.95 "HgN/A
2:00 AM60 °FRain. Overcast.6 mph95%29.97 "Hg6 mi
1:00 AM60 °FCool.3 mph96%29.97 "HgN/A
12:00 AM61 °FCool.2 mph94%29.98 "HgN/A
11:00 PM
Jul 21
61 °FLight rain. Overcast.3 mph91%29.98 "Hg9 mi
10:00 PM62 °FCool.12 mph87%29.96 "HgN/A
9:00 PM63 °FMild.10 mph80%29.96 "HgN/A
8:00 PM64 °FMild.14 mph77%29.94 "HgN/A
Weather by CustomWeather, © 2014

See weather overviewHow to use our weather pages